Total_Precipitation_Accumulation
0.10 0.10 0.08 0.08 0.07 0.07 0.06 0.06 0.07 0.06 0.06 0.05 0.04 0.04 0.05 0.06 0.05 0.06 0.06 0.06 0.04 0.03 0.04 0.02 0.03 0.03 0.03 0.03 0.01 0.00 0.01 0.00 0.00 0.00 0.00 0.00 0.00 0.00 0.00 0.00 0.00 0.00 0.00 0.00 0.01 0.00 0.01 0.00 0.00 0.01 0.01 0.01 0.01 0.06 0.01 0.03 0.14 0.34 1.80 1.61 2.49 2.52 2.80 3.57 4.19 4.01 2.79 3.50 2.70 2.18 2.09 2.51 1.82 1.09 1.54 0.68 1.03 1.01 0.57 0.90 0.69 0.88 1.14 1.16 0.74 0.64 0.50 0.24
0.10 0.09 0.07 0.06 0.06 0.06 0.06 0.06 0.05 0.05 0.04 0.05 0.05 0.04 0.06 0.05 0.05 0.04 0.05 0.05 0.05 0.05 0.04 0.05 0.03 0.03 0.04 0.01 0.00 0.00 0.01 0.00 0.00 0.00 0.00 0.00 0.00 0.00 0.00 0.00 0.00 0.00 0.00 0.00 0.00 0.00 0.00 0.00 0.00 0.00 0.01 0.03 0.00 0.02 0.02 0.11 0.04 0.45 0.82 1.78 2.66 1.79 1.57 1.92 1.95 3.35 3.56 2.47 2.28 2.28 1.85 2.19 2.22 0.80 1.11 2.27 1.39 1.03 0.76 1.13 1.31 0.97 0.93 0.91 0.79 0.65 0.49 0.23
0.10 0.09 0.08 0.07 0.07 0.07 0.06 0.07 0.05 0.04 0.04 0.04 0.05 0.07 0.06 0.07 0.05 0.05 0.03 0.03 0.04 0.05 0.05 0.03 0.03 0.03 0.02 0.02 0.00 0.01 0.02 0.00 0.00 0.00 0.00 0.00 0.00 0.00 0.00 0.00 0.00 0.00 0.00 0.00 0.00 0.00 0.00 0.00 0.00 0.00 0.00 0.01 0.01 0.06 0.01 0.15 0.08 0.34 0.67 2.13 2.52 1.12 1.69 1.29 2.73 2.73 3.14 2.36 2.11 2.20 1.42 2.24 1.66 1.95 0.79 1.50 1.49 1.37 1.38 1.53 0.95 1.51 1.36 0.97 0.96 0.73 0.55 0.37
0.09 0.09 0.08 0.08 0.08 0.08 0.08 0.05 0.04 0.04 0.04 0.05 0.05 0.06 0.07 0.06 0.05 0.04 0.04 0.04 0.04 0.04 0.04 0.04 0.03 0.03 0.03 0.00 0.00 0.01 0.00 0.00 0.00 0.00 0.00 0.00 0.00 0.00 0.00 0.00 0.00 0.00 0.00 0.00 0.00 0.00 0.00 0.00 0.00 0.00 0.00 0.01 0.00 0.01 0.05 0.07 0.15 1.11 0.61 1.18 2.29 1.01 1.33 1.48 2.55 2.93 2.58 2.42 2.97 1.94 1.86 1.83 1.48 1.64 1.34 1.18 1.87 1.53 1.84 1.18 1.86 2.05 1.63 0.82 0.99 0.70 0.58 0.51
0.11 0.09 0.10 0.09 0.08 0.08 0.05 0.05 0.04 0.04 0.04 0.05 0.05 0.06 0.06 0.05 0.04 0.03 0.04 0.04 0.04 0.03 0.04 0.03 0.03 0.03 0.00 0.00 0.00 0.00 0.00 0.00 0.00 0.00 0.00 0.00 0.00 0.00 0.00 0.00 0.00 0.00 0.00 0.00 0.00 0.00 0.00 0.00 0.00 0.00 0.00 0.00 0.01 0.02 0.02 0.03 0.01 0.09 0.48 0.59 0.81 0.83 1.17 1.14 1.33 1.38 1.99 3.07 4.03 2.20 1.74 2.33 1.79 0.85 1.10 1.12 1.90 2.42 1.02 1.30 1.42 1.72 1.72 1.22 0.95 0.81 0.63 0.72
0.11 0.11 0.09 0.10 0.08 0.05 0.06 0.04 0.04 0.05 0.05 0.06 0.06 0.05 0.06 0.05 0.04 0.05 0.04 0.04 0.03 0.03 0.02 0.03 0.03 0.01 0.01 0.00 0.01 0.01 0.00 0.00 0.00 0.00 0.00 0.00 0.00 0.00 0.00 0.00 0.00 0.00 0.00 0.00 0.00 0.00 0.00 0.00 0.00 0.00 0.00 0.00 0.01 0.03 0.00 0.03 0.03 0.81 0.63 0.58 0.57 0.42 0.95 0.52 1.08 1.87 2.50 2.54 2.71 1.68 2.27 1.53 1.42 1.42 1.26 1.01 2.30 1.63 0.98 0.70 1.08 1.09 1.11 1.25 0.85 0.83 0.66 0.41
0.11 0.12 0.11 0.07 0.06 0.05 0.04 0.05 0.06 0.05 0.06 0.06 0.07 0.05 0.04 0.04 0.04 0.04 0.03 0.02 0.03 0.03 0.03 0.02 0.02 0.01 0.00 0.01 0.00 0.00 0.00 0.00 0.00 0.00 0.00 0.00 0.00 0.00 0.00 0.00 0.00 0.00 0.00 0.00 0.00 0.00 0.00 0.00 0.00 0.00 0.00 0.00 0.00 0.00 0.00 0.00 0.06 0.11 0.75 0.44 0.70 0.52 0.23 0.46 1.28 2.19 2.29 2.05 2.55 2.56 1.70 1.76 1.42 1.70 0.89 1.46 0.95 1.07 0.58 0.95 0.89 1.03 1.33 1.36 1.29 0.88 0.84 0.51
0.12 0.10 0.08 0.07 0.05 0.04 0.05 0.05 0.06 0.07 0.05 0.06 0.05 0.05 0.03 0.03 0.03 0.02 0.02 0.02 0.03 0.02 0.02 0.02 0.02 0.00 0.01 0.00 0.00 0.00 0.00 0.00 0.00 0.00 0.00 0.00 0.00 0.00 0.00 0.00 0.00 0.00 0.00 0.00 0.00 0.00 0.00 0.00 0.00 0.00 0.00 0.00 0.01 0.01 0.00 0.01 0.08 0.24 0.28 0.40 0.48 0.62 0.51 0.76 0.98 2.19 3.16 4.65 3.43 2.35 1.83 2.30 1.28 1.12 0.53 1.13 0.62 0.60 0.73 0.25 0.69 0.87 1.36 1.05 0.90 0.90 0.80 0.51
0.10 0.09 0.08 0.06 0.05 0.05 0.04 0.05 0.06 0.06 0.06 0.04 0.04 0.04 0.04 0.03 0.03 0.02 0.02 0.01 0.02 0.02 0.01 0.03 0.00 0.00 0.03 0.01 0.00 0.00 0.00 0.00 0.00 0.00 0.00 0.00 0.00 0.00 0.00 0.00 0.00 0.00 0.00 0.00 0.00 0.00 0.00 0.00 0.00 0.00 0.00 0.00 0.00 0.00 0.00 0.02 0.47 0.07 0.37 0.12 0.35 0.56 0.61 1.11 1.19 1.71 1.80 2.64 3.45 3.41 3.02 2.33 1.37 0.68 1.36 1.41 0.84 0.78 0.35 0.36 0.20 0.44 0.42 0.90 0.92 1.26 0.61 0.97
0.10 0.09 0.07 0.06 0.05 0.05 0.05 0.04 0.05 0.06 0.04 0.05 0.04 0.04 0.04 0.02 0.02 0.01 0.01 0.02 0.01 0.02 0.01 0.01 0.00 0.01 0.00 0.00 0.00 0.00 0.00 0.00 0.00 0.00 0.00 0.00 0.00 0.00 0.00 0.00 0.00 0.00 0.00 0.00 0.00 0.00 0.00 0.00 0.00 0.00 0.00 0.00 0.00 0.01 0.00 0.02 0.91 0.02 0.12 0.45 0.49 1.00 0.74 1.16 1.02 1.16 1.96 2.18 2.77 4.20 3.60 2.97 1.38 0.72 1.46 1.28 0.43 0.35 0.59 0.20 0.17 0.59 0.57 0.54 0.54 0.86 0.58 0.78
0.10 0.09 0.06 0.05 0.06 0.04 0.04 0.05 0.05 0.04 0.04 0.04 0.04 0.03 0.02 0.03 0.02 0.02 0.01 0.01 0.01 0.01 0.02 0.01 0.00 0.01 0.00 0.00 0.00 0.00 0.00 0.00 0.00 0.00 0.00 0.00 0.00 0.00 0.00 0.00 0.00 0.00 0.00 0.00 0.00 0.00 0.00 0.00 0.00 0.00 0.00 0.04 0.00 0.00 0.00 0.12 0.01 0.04 0.07 0.34 0.61 0.73 0.73 1.04 1.80 1.19 1.97 2.71 2.87 6.20 4.92 3.25 2.49 1.20 1.50 0.82 0.42 0.61 0.68 0.26 0.26 0.15 0.28 0.44 0.56 0.98 1.20 0.62
0.09 0.08 0.06 0.04 0.04 0.05 0.04 0.04 0.04 0.03 0.05 0.04 0.03 0.03 0.03 0.02 0.02 0.01 0.01 0.01 0.01 0.01 0.01 0.01 0.00 0.00 0.00 0.00 0.00 0.00 0.00 0.00 0.00 0.00 0.00 0.00 0.00 0.00 0.00 0.00 0.00 0.00 0.00 0.00 0.00 0.00 0.00 0.00 0.00 0.00 0.01 0.00 0.02 0.00 0.00 0.00 0.02 0.02 0.18 0.72 0.96 1.17 1.26 1.48 1.77 2.25 2.44 2.07 2.89 4.09 4.05 4.64 5.19 2.49 1.21 0.74 0.44 0.46 0.59 0.25 0.75 0.53 0.44 0.39 0.50 0.64 0.69 1.24
0.08 0.07 0.05 0.03 0.04 0.06 0.05 0.04 0.04 0.05 0.04 0.03 0.03 0.02 0.02 0.02 0.01 0.01 0.01 0.00 0.00 0.01 0.02 0.01 0.01 0.00 0.00 0.00 0.00 0.00 0.00 0.00 0.00 0.00 0.00 0.00 0.00 0.00 0.00 0.00 0.00 0.00 0.00 0.00 0.00 0.00 0.00 0.00 0.00 0.00 0.00 0.00 0.00 0.04 0.18 0.01 0.03 0.03 0.07 0.51 0.64 1.07 1.58 1.35 2.10 2.46 2.27 2.81 2.63 2.76 3.35 2.87 3.70 3.67 1.29 0.58 0.64 0.56 0.35 0.53 0.18 0.69 0.68 0.32 0.42 0.58 0.31 0.62
0.08 0.05 0.04 0.04 0.04 0.05 0.05 0.05 0.04 0.05 0.03 0.02 0.02 0.02 0.02 0.01 0.01 0.00 0.00 0.00 0.00 0.01 0.01 0.00 0.00 0.00 0.00 0.00 0.00 0.00 0.00 0.00 0.00 0.00 0.00 0.00 0.00 0.00 0.00 0.00 0.00 0.00 0.00 0.00 0.00 0.00 0.00 0.00 0.00 0.00 0.00 0.00 0.01 0.00 0.34 0.03 0.02 0.31 0.16 0.27 0.77 0.81 2.06 1.34 1.21 1.94 2.08 1.77 1.41 2.03 2.67 2.52 3.52 1.98 1.76 1.41 1.40 0.45 0.58 0.39 0.38 0.51 0.59 0.73 0.50 0.32 0.36 0.29
0.07 0.05 0.06 0.05 0.05 0.05 0.05 0.05 0.04 0.03 0.03 0.02 0.02 0.02 0.01 0.00 0.00 0.00 0.00 0.00 0.01 0.01 0.00 0.02 0.00 0.00 0.00 0.00 0.00 0.00 0.00 0.00 0.00 0.00 0.00 0.00 0.00 0.00 0.00 0.00 0.00 0.00 0.00 0.00 0.00 0.00 0.00 0.00 0.00 0.00 0.00 0.00 0.00 0.03 0.06 0.06 0.03 0.12 0.16 0.60 0.32 0.52 2.53 1.32 0.79 1.59 1.53 1.44 1.49 1.31 2.53 2.81 2.39 1.88 1.34 2.53 2.99 1.13 0.79 0.35 0.20 0.79 0.94 0.39 0.33 0.43 0.26 0.34
0.06 0.08 0.06 0.07 0.06 0.05 0.03 0.03 0.02 0.03 0.03 0.02 0.01 0.01 0.00 0.00 0.00 0.00 0.00 0.00 0.00 0.01 0.02 0.00 0.00 0.00 0.00 0.00 0.00 0.00 0.00 0.00 0.00 0.00 0.00 0.00 0.00 0.00 0.00 0.00 0.00 0.00 0.00 0.00 0.00 0.00 0.00 0.00 0.00 0.00 0.00 0.00 0.00 0.01 0.12 0.09 0.19 0.07 0.12 0.29 0.57 0.47 1.25 1.70 1.72 1.38 1.66 1.87 1.85 2.11 2.94 2.20 1.98 1.80 1.52 1.26 2.05 0.94 0.47 0.49 0.17 0.42 0.46 0.27 0.41 0.17 0.15 0.25
0.07 0.07 0.05 0.04 0.05 0.04 0.03 0.02 0.03 0.02 0.02 0.02 0.01 0.00 0.00 0.00 0.00 0.00 0.00 0.01 0.01 0.01 0.00 0.00 0.00 0.00 0.00 0.00 0.00 0.00 0.00 0.00 0.00 0.00 0.00 0.00 0.00 0.00 0.00 0.00 0.00 0.00 0.00 0.00 0.00 0.00 0.00 0.00 0.00 0.00 0.00 0.00 0.00 0.02 0.12 0.16 0.18 0.15 0.05 0.42 0.92 0.94 0.84 2.05 0.86 1.64 1.74 1.96 2.25 1.05 1.93 1.95 1.07 1.43 1.26 1.28 1.41 0.94 0.30 0.27 0.38 0.89 0.47 0.22 0.22 0.13 0.15 0.37
0.06 0.04 0.04 0.04 0.04 0.05 0.04 0.02 0.03 0.02 0.02 0.01 0.00 0.00 0.00 0.00 0.00 0.00 0.00 0.00 0.00 0.00 0.00 0.00 0.00 0.00 0.00 0.00 0.00 0.00 0.00 0.00 0.00 0.00 0.00 0.00 0.00 0.00 0.00 0.00 0.00 0.00 0.00 0.00 0.00 0.00 0.00 0.00 0.00 0.00 0.00 0.00 0.00 0.02 0.05 0.20 0.11 0.23 0.44 0.30 0.73 0.51 1.01 1.30 0.83 1.33 1.39 1.41 2.13 1.47 1.92 1.83 1.55 0.82 1.44 1.14 1.37 0.95 0.42 0.22 0.69 0.60 0.16 0.24 0.14 0.36 0.58 0.50
0.06 0.04 0.04 0.03 0.04 0.07 0.04 0.04 0.02 0.03 0.02 0.01 0.00 0.00 0.00 0.01 0.00 0.00 0.00 0.00 0.00 0.00 0.00 0.00 0.00 0.00 0.00 0.00 0.00 0.00 0.00 0.00 0.00 0.00 0.00 0.00 0.00 0.00 0.00 0.00 0.00 0.00 0.00 0.00 0.00 0.00 0.00 0.00 0.00 0.00 0.00 0.00 0.00 0.00 0.05 0.06 0.02 0.18 0.35 0.60 0.76 1.08 1.34 1.60 1.05 0.68 0.89 1.64 1.81 2.07 1.84 2.16 1.64 2.10 2.23 2.16 1.05 1.37 0.57 0.54 0.89 0.43 0.38 0.48 0.69 0.53 0.86 0.51
0.05 0.06 0.04 0.03 0.02 0.05 0.05 0.03 0.02 0.02 0.03 0.01 0.00 0.00 0.00 0.00 0.00 0.00 0.00 0.00 0.00 0.00 0.00 0.00 0.00 0.00 0.00 0.00 0.00 0.00 0.00 0.00 0.00 0.00 0.00 0.00 0.00 0.00 0.00 0.00 0.00 0.00 0.00 0.00 0.00 0.00 0.00 0.00 0.00 0.00 0.00 0.00 0.01 0.01 0.03 0.01 0.03 0.03 0.10 0.22 0.77 0.52 0.79 0.82 1.11 0.90 1.49 1.99 1.76 2.58 2.08 2.01 1.55 1.76 2.19 2.65 1.85 1.79 1.28 1.13 1.09 0.77 0.91 1.08 1.41 1.26 0.50 0.52
0.05 0.04 0.04 0.03 0.03 0.03 0.04 0.02 0.02 0.02 0.05 0.01 0.00 0.00 0.00 0.00 0.00 0.00 0.00 0.00 0.00 0.00 0.00 0.00 0.00 0.00 0.00 0.00 0.00 0.00 0.00 0.00 0.00 0.00 0.00 0.00 0.00 0.00 0.00 0.00 0.00 0.00 0.00 0.00 0.00 0.00 0.00 0.00 0.00 0.00 0.00 0.00 0.00 0.00 0.01 0.02 0.02 0.12 0.07 0.32 0.47 0.50 1.00 0.94 1.18 1.27 2.43 1.69 1.97 2.11 2.45 2.76 2.32 2.17 2.26 2.61 1.62 1.44 0.84 0.70 0.70 1.51 0.79 1.56 1.10 1.17 0.82 0.76
0.05 0.05 0.04 0.03 0.02 0.04 0.03 0.02 0.01 0.02 0.03 0.00 0.00 0.00 0.00 0.00 0.00 0.00 0.00 0.00 0.00 0.00 0.00 0.00 0.00 0.00 0.00 0.00 0.00 0.00 0.00 0.00 0.00 0.00 0.00 0.00 0.00 0.00 0.00 0.00 0.00 0.00 0.00 0.00 0.00 0.00 0.00 0.00 0.00 0.00 0.00 0.00 0.00 0.00 0.00 0.03 0.04 0.04 0.12 0.39 0.59 0.48 0.62 0.79 1.67 1.30 2.02 1.57 2.96 2.92 2.81 3.60 3.12 2.65 2.67 2.44 1.50 1.78 1.37 1.12 1.50 0.85 1.10 1.10 1.28 0.75 0.63 0.80
0.08 0.05 0.05 0.04 0.03 0.02 0.01 0.01 0.01 0.02 0.00 0.00 0.00 0.00 0.00 0.00 0.00 0.00 0.00 0.00 0.00 0.00 0.00 0.00 0.00 0.00 0.00 0.00 0.00 0.00 0.00 0.00 0.00 0.00 0.00 0.00 0.00 0.00 0.00 0.00 0.00 0.00 0.00 0.00 0.00 0.00 0.00 0.00 0.00 0.00 0.00 0.00 0.00 0.00 0.00 0.00 0.01 0.02 0.04 0.14 0.23 0.70 0.31 0.72 1.73 1.73 2.80 1.02 3.03 2.41 1.64 3.14 3.84 3.33 3.28 2.56 1.76 2.08 2.54 1.88 1.17 1.57 1.94 1.30 0.97 1.02 0.46 0.49
0.06 0.07 0.04 0.04 0.04 0.01 0.03 0.00 0.03 0.02 0.00 0.00 0.00 0.00 0.00 0.00 0.00 0.00 0.00 0.00 0.00 0.00 0.00 0.00 0.00 0.00 0.00 0.00 0.00 0.00 0.00 0.00 0.00 0.00 0.00 0.00 0.00 0.00 0.00 0.00 0.00 0.00 0.00 0.00 0.00 0.00 0.00 0.00 0.00 0.00 0.00 0.00 0.00 0.00 0.00 0.00 0.01 0.00 0.00 0.02 0.12 0.12 0.34 0.42 0.94 0.48 1.75 1.81 1.26 2.52 3.08 3.39 2.60 3.22 2.45 2.53 1.84 2.72 2.38 2.70 2.12 1.94 1.88 1.43 1.25 0.81 0.89 0.79
0.07 0.06 0.05 0.05 0.02 0.02 0.00 0.01 0.00 0.00 0.00 0.00 0.00 0.00 0.00 0.00 0.00 0.00 0.00 0.00 0.00 0.00 0.00 0.00 0.00 0.00 0.00 0.00 0.00 0.00 0.00 0.00 0.00 0.00 0.00 0.00 0.00 0.00 0.00 0.00 0.00 0.00 0.00 0.00 0.00 0.00 0.00 0.00 0.00 0.00 0.00 0.00 0.00 0.00 0.00 0.00 0.01 0.00 0.00 0.02 0.03 0.03 0.40 0.13 0.21 0.20 0.82 1.59 0.85 0.98 2.17 3.50 1.69 1.88 1.35 1.74 2.16 2.00 2.31 2.30 2.08 1.65 1.44 0.68 0.73 0.66 1.36 1.87
0.05 0.07 0.05 0.06 0.03 0.02 0.02 0.00 0.00 0.00 0.00 0.00 0.00 0.00 0.00 0.00 0.00 0.00 0.00 0.00 0.01 0.00 0.00 0.00 0.00 0.00 0.00 0.00 0.00 0.00 0.00 0.00 0.00 0.00 0.00 0.00 0.00 0.00 0.00 0.00 0.00 0.00 0.00 0.00 0.00 0.00 0.00 0.00 0.00 0.00 0.00 0.00 0.00 0.01 0.00 0.00 0.00 0.00 0.04 0.00 0.00 0.03 0.24 0.20 0.29 0.46 0.74 1.36 1.25 0.67 1.00 2.58 1.88 1.73 1.91 1.96 1.59 1.91 2.75 1.93 1.95 1.93 1.49 0.82 0.83 0.80 1.40 2.66
0.05 0.05 0.08 0.04 0.04 0.03 0.00 0.00 0.00 0.00 0.00 0.00 0.00 0.00 0.00 0.00 0.00 0.00 0.00 0.00 0.02 0.00 0.00 0.00 0.00 0.00 0.00 0.00 0.00 0.00 0.00 0.00 0.00 0.00 0.00 0.00 0.00 0.00 0.00 0.00 0.00 0.00 0.00 0.00 0.00 0.00 0.00 0.00 0.00 0.00 0.00 0.00 0.00 0.00 0.00 0.00 0.00 0.01 0.00 0.02 0.01 0.04 0.08 0.03 0.20 0.40 0.84 0.49 0.93 0.83 0.40 1.50 1.77 1.61 1.27 1.95 1.88 1.83 2.21 1.59 2.27 1.96 1.09 1.23 0.62 1.20 1.76 2.58
0.06 0.05 0.06 0.05 0.02 0.08 0.01 0.00 0.00 0.00 0.00 0.00 0.00 0.00 0.00 0.00 0.00 0.00 0.00 0.08 0.00 0.00 0.00 0.00 0.00 0.00 0.00 0.00 0.00 0.00 0.02 0.00 0.00 0.00 0.00 0.00 0.00 0.00 0.00 0.00 0.00 0.00 0.00 0.00 0.01 0.00 0.00 0.00 0.00 0.00 0.00 0.00 0.00 0.00 0.02 0.00 0.00 0.02 0.01 0.01 0.01 0.09 0.03 0.01 0.03 0.13 0.26 0.17 0.91 0.59 0.44 0.98 1.11 1.64 1.05 1.73 2.49 2.04 2.11 2.17 1.58 1.47 0.94 0.75 0.85 0.86 1.13 1.93
0.05 0.06 0.05 0.04 0.03 0.01 0.02 0.00 0.00 0.00 0.00 0.00 0.00 0.00 0.00 0.00 0.00 0.00 0.04 0.14 0.00 0.00 0.00 0.00 0.00 0.00 0.00 0.00 0.00 0.00 0.00 0.00 0.03 0.00 0.00 0.00 0.00 0.00 0.00 0.00 0.00 0.00 0.00 0.00 0.00 0.00 0.00 0.00 0.00 0.00 0.00 0.00 0.00 0.00 0.00 0.00 0.00 0.00 0.00 0.00 0.00 0.04 0.07 0.05 0.10 0.24 0.29 0.13 0.37 0.25 0.43 0.69 1.16 1.75 1.28 1.65 1.72 1.29 1.36 1.54 1.31 1.55 0.97 0.72 0.79 0.87 0.92 1.36
0.06 0.05 0.06 0.04 0.04 0.02 0.00 0.01 0.00 0.00 0.00 0.00 0.00 0.00 0.00 0.00 0.00 0.04 0.04 0.08 0.00 0.00 0.00 0.00 0.00 0.00 0.00 0.00 0.00 0.00 0.00 0.00 0.00 0.00 0.00 0.00 0.00 0.00 0.00 0.00 0.00 0.00 0.00 0.00 0.00 0.00 0.00 0.00 0.00 0.00 0.00 0.00 0.00 0.00 0.01 0.03 0.00 0.00 0.00 0.00 0.01 0.02 0.02 0.07 0.30 0.53 0.39 0.23 0.21 0.14 0.27 0.18 1.25 1.30 0.81 1.42 0.77 0.87 0.88 1.36 1.33 1.25 0.97 0.88 0.80 0.66 0.74 1.08
0.06 0.04 0.04 0.09 0.01 0.00 0.00 0.00 0.00 0.00 0.00 0.00 0.00 0.00 0.00 0.00 0.02 0.07 0.14 0.02 0.00 0.00 0.00 0.00 0.00 0.00 0.00 0.00 0.00 0.00 0.00 0.00 0.00 0.00 0.00 0.00 0.00 0.00 0.00 0.00 0.00 0.00 0.00 0.00 0.02 0.00 0.00 0.00 0.00 0.00 0.00 0.00 0.00 0.04 0.00 0.01 0.02 0.00 0.01 0.20 0.09 0.27 0.57 0.52 1.15 1.33 0.40 0.29 0.16 0.30 0.38 0.46 0.74 1.71 1.24 0.42 0.36 0.29 0.53 1.13 1.49 1.40 0.83 0.78 0.90 1.07 0.84 1.43
0.04 0.04 0.03 0.05 0.00 0.01 0.00 0.00 0.00 0.00 0.00 0.00 0.00 0.00 0.00 0.10 0.08 0.13 0.08 0.00 0.07 0.00 0.00 0.00 0.00 0.00 0.00 0.00 0.00 0.00 0.00 0.00 0.00 0.00 0.00 0.00 0.00 0.00 0.00 0.00 0.00 0.04 0.00 0.00 0.00 0.00 0.00 0.00 0.00 0.00 0.00 0.00 0.00 0.01 0.01 0.00 0.00 0.00 0.03 0.05 0.24 0.76 1.09 0.54 1.22 0.71 0.47 0.66 0.66 0.51 0.69 1.38 0.44 0.54 0.43 0.42 0.27 0.66 0.43 0.51 0.64 1.04 1.01 0.83 0.81 1.05 1.63 1.59
0.04 0.03 0.04 0.02 0.02 0.00 0.00 0.00 0.00 0.00 0.00 0.00 0.00 0.00 0.01 0.21 0.19 0.07 0.09 0.00 0.05 0.00 0.00 0.00 0.00 0.00 0.00 0.00 0.00 0.00 0.00 0.03 0.00 0.00 0.00 0.00 0.00 0.00 0.00 0.00 0.00 0.00 0.06 0.01 0.00 0.00 0.00 0.00 0.00 0.00 0.00 0.00 0.00 0.01 0.05 0.00 0.08 0.01 0.03 0.06 0.06 0.30 0.27 0.38 0.29 0.25 0.36 0.26 0.39 0.55 0.93 0.77 0.48 0.35 0.17 0.36 0.44 0.28 0.55 0.59 0.51 0.93 0.85 0.81 0.72 1.05 1.18 1.16
0.03 0.06 0.02 0.00 0.00 0.00 0.00 0.00 0.00 0.00 0.00 0.00 0.00 0.00 0.06 0.10 0.21 0.02 0.01 0.00 0.01 0.00 0.00 0.01 0.00 0.00 0.00 0.03 0.01 0.00 0.01 0.00 0.00 0.01 0.00 0.01 0.00 0.00 0.00 0.00 0.00 0.00 0.00 0.01 0.00 0.00 0.03 0.00 0.00 0.00 0.00 0.00 0.00 0.00 0.00 0.02 0.00 0.08 0.02 0.03 0.05 0.14 0.20 0.46 0.40 0.62 0.33 0.84 0.58 0.69 0.35 1.17 0.72 3.89 0.31 0.57 0.18 0.21 0.18 0.31 0.39 0.59 1.18 1.32 1.38 1.22 1.22 1.28
0.03 0.03 0.01 0.00 0.00 0.00 0.00 0.00 0.00 0.00 0.00 0.00 0.00 0.10 0.18 0.08 0.05 0.04 0.01 0.00 0.00 0.00 0.00 0.00 0.00 0.00 0.01 0.00 0.00 0.00 0.00 0.01 0.00 0.00 0.00 0.00 0.00 0.01 0.00 0.00 0.00 0.00 0.00 0.01 0.00 0.00 0.00 0.00 0.00 0.00 0.00 0.00 0.00 0.00 0.00 0.01 0.01 0.02 0.09 0.04 0.02 0.03 0.01 0.09 0.26 0.20 0.23 0.34 0.48 0.84 0.60 0.60 1.11 0.52 0.44 0.39 0.36 0.29 0.31 0.51 0.66 1.27 1.20 1.36 1.47 1.56 1.32 1.20
0.04 0.00 0.00 0.00 0.00 0.00 0.00 0.00 0.00 0.00 0.00 0.00 0.06 0.17 0.25 0.05 0.09 0.00 0.01 0.00 0.00 0.00 0.00 0.00 0.00 0.00 0.00 0.01 0.00 0.01 0.00 0.00 0.01 0.00 0.00 0.00 0.00 0.02 0.00 0.00 0.00 0.00 0.00 0.02 0.02 0.04 0.00 0.01 0.00 0.00 0.00 0.00 0.00 0.00 0.00 0.00 0.05 0.02 0.02 0.06 0.00 0.01 0.01 0.16 0.04 0.07 0.08 0.22 0.43 0.26 0.49 0.38 0.22 0.43 0.43 0.75 0.88 0.65 0.51 0.54 0.43 1.11 1.24 1.09 1.18 1.15 1.39 1.12
0.00 0.00 0.01 0.00 0.00 0.00 0.00 0.00 0.00 0.00 0.00 0.00 0.16 0.36 0.06 0.03 0.00 0.00 0.00 0.00 0.00 0.00 0.00 0.00 0.00 0.00 0.00 0.05 0.03 0.00 0.00 0.00 0.00 0.00 0.03 0.00 0.01 0.00 0.00 0.00 0.00 0.00 0.00 0.00 0.01 0.01 0.01 0.05 0.00 0.00 0.00 0.00 0.00 0.00 0.00 0.00 0.00 0.01 0.07 0.01 0.00 0.00 0.08 0.05 0.32 0.16 0.22 0.39 0.94 0.25 0.52 0.87 0.60 2.19 0.66 1.10 1.02 1.06 0.52 0.39 0.73 0.91 0.88 1.24 0.83 1.04 1.14 1.47
0.00 0.00 0.00 0.00 0.00 0.00 0.00 0.00 0.00 0.00 0.00 0.07 0.16 0.01 0.00 0.04 0.00 0.00 0.00 0.00 0.00 0.00 0.00 0.00 0.00 0.00 0.00 0.00 0.05 0.01 0.00 0.00 0.01 0.00 0.04 0.00 0.06 0.00 0.00 0.00 0.00 0.00 0.00 0.00 0.01 0.02 0.00 0.04 0.00 0.00 0.00 0.00 0.00 0.00 0.03 0.01 0.00 0.01 0.02 0.01 0.05 0.22 0.18 0.05 0.10 0.32 0.34 0.54 0.64 0.60 0.70 0.61 0.78 1.46 0.56 0.74 0.59 0.67 0.67 0.97 1.22 0.96 1.28 1.65 1.55 1.27 1.51 1.48
0.00 0.00 0.00 0.00 0.00 0.00 0.00 0.00 0.00 0.00 0.03 0.16 0.08 0.05 0.01 0.01 0.00 0.00 0.00 0.00 0.00 0.00 0.00 0.00 0.01 0.00 0.00 0.00 0.02 0.00 0.01 0.03 0.00 0.01 0.03 0.02 0.11 0.00 0.00 0.00 0.00 0.00 0.00 0.00 0.00 0.00 0.00 0.02 0.01 0.00 0.00 0.00 0.00 0.00 0.04 0.00 0.01 0.00 0.00 0.02 0.00 0.06 0.06 0.12 0.04 0.23 0.20 0.50 0.31 1.48 0.92 1.46 1.20 1.47 0.43 0.86 0.84 0.67 0.76 0.50 0.75 1.29 1.54 1.72 1.95 1.83 1.43 1.53
0.00 0.01 0.00 0.00 0.00 0.00 0.00 0.00 0.00 0.01 0.11 0.37 0.09 0.07 0.01 0.01 0.00 0.00 0.00 0.00 0.00 0.00 0.06 0.00 0.00 0.00 0.00 0.00 0.00 0.01 0.01 0.01 0.01 0.03 0.02 0.02 0.00 0.00 0.00 0.00 0.00 0.00 0.00 0.00 0.00 0.00 0.01 0.00 0.05 0.03 0.00 0.00 0.05 0.00 0.02 0.01 0.02 0.01 0.00 0.01 0.01 0.00 0.14 0.03 0.04 0.04 0.25 0.25 0.28 0.56 1.01 1.13 1.04 0.60 0.85 0.82 0.53 0.42 0.52 0.70 1.35 2.01 1.79 1.90 1.58 2.12 2.50 1.92
0.00 0.00 0.01 0.00 0.00 0.00 0.00 0.00 0.03 0.10 0.07 0.11 0.01 0.02 0.01 0.01 0.00 0.00 0.00 0.00 0.00 0.00 0.00 0.00 0.00 0.00 0.00 0.01 0.02 0.00 0.00 0.00 0.01 0.02 0.01 0.01 0.00 0.02 0.00 0.00 0.00 0.00 0.00 0.00 0.00 0.00 0.00 0.00 0.03 0.03 0.06 0.03 0.07 0.00 0.01 0.00 0.00 0.01 0.01 0.04 0.05 0.03 0.12 0.16 0.60 0.03 0.03 0.12 0.37 0.40 1.04 1.32 0.90 0.97 0.90 1.65 1.51 1.41 1.02 1.28 1.69 2.04 2.00 1.96 1.65 2.52 2.68 1.51
0.00 0.06 0.00 0.00 0.00 0.00 0.00 0.09 0.07 0.05 0.06 0.13 0.15 0.01 0.02 0.00 0.01 0.00 0.00 0.00 0.00 0.00 0.00 0.00 0.00 0.00 0.00 0.00 0.00 0.01 0.00 0.00 0.02 0.02 0.01 0.04 0.00 0.00 0.00 0.00 0.00 0.00 0.00 0.04 0.06 0.06 0.00 0.03 0.01 0.17 0.04 0.07 0.01 0.01 0.00 0.00 0.00 0.00 0.00 0.03 0.01 0.01 0.01 0.05 0.07 0.18 0.02 0.12 0.04 0.32 0.50 2.05 0.59 0.91 0.96 0.97 0.76 0.85 0.95 1.13 1.48 1.79 1.50 1.32 1.51 1.98 2.60 1.88
0.00 0.01 0.00 0.00 0.00 0.00 0.00 0.06 0.03 0.02 0.08 0.04 0.01 0.03 0.01 0.02 0.01 0.04 0.01 0.03 0.02 0.05 0.02 0.01 0.00 0.01 0.01 0.00 0.00 0.00 0.00 0.01 0.02 0.03 0.08 0.02 0.05 0.00 0.00 0.00 0.00 0.00 0.00 0.00 0.00 0.01 0.00 0.03 0.03 0.03 0.02 0.02 0.00 0.01 0.00 0.00 0.01 0.00 0.00 0.00 0.00 0.04 0.01 0.07 0.10 0.08 0.20 0.25 0.12 0.58 0.55 1.72 0.58 0.51 0.91 1.40 1.11 0.88 1.04 0.99 1.31 1.14 0.88 0.95 2.61 1.74 2.52 2.08
0.00 0.01 0.00 0.00 0.00 0.00 0.02 0.15 0.15 0.07 0.01 0.01 0.02 0.03 0.00 0.01 0.01 0.06 0.04 0.05 0.04 0.05 0.04 0.03 0.02 0.04 0.02 0.00 0.01 0.01 0.01 0.02 0.04 0.03 0.05 0.05 0.05 0.01 0.00 0.00 0.00 0.00 0.00 0.03 0.01 0.06 0.01 0.08 0.06 0.25 0.17 0.08 0.12 0.00 0.00 0.00 0.00 0.02 0.03 0.02 0.03 0.01 0.00 0.01 0.03 0.02 0.10 0.15 0.23 0.22 1.03 1.50 0.76 0.44 0.36 0.88 0.72 0.68 0.94 0.97 0.85 0.75 1.12 1.37 1.55 2.26 1.77 1.93
0.02 0.01 0.00 0.00 0.00 0.00 0.07 0.10 0.07 0.09 0.02 0.02 0.05 0.02 0.04 0.03 0.02 0.02 0.03 0.05 0.04 0.05 0.01 0.04 0.08 0.09 0.03 0.02 0.01 0.01 0.01 0.01 0.04 0.04 0.05 0.06 0.05 0.02 0.00 0.00 0.00 0.00 0.00 0.00 0.00 0.00 0.00 0.13 0.08 0.25 0.33 0.36 0.42 0.51 0.70 0.51 0.27 0.19 0.05 0.08 0.05 0.05 0.08 0.08 0.07 0.06 0.03 0.31 0.12 0.27 0.84 0.83 0.80 0.52 0.44 0.65 0.54 0.54 0.71 0.70 0.80 1.00 1.49 0.97 1.23 1.34 2.01 2.17
0.02 0.26 0.01 0.01 0.00 0.02 0.02 0.00 0.02 0.07 0.07 0.03 0.02 0.03 0.01 0.06 0.03 0.03 0.02 0.03 0.01 0.02 0.05 0.05 0.02 0.03 0.09 0.08 0.05 0.02 0.01 0.01 0.02 0.07 0.10 0.12 0.06 0.04 0.02 0.01 0.00 0.00 0.00 0.00 0.01 0.00 0.06 0.03 0.05 0.06 0.11 0.34 0.50 0.15 0.03 0.03 0.08 0.14 0.12 0.05 0.06 0.06 0.03 0.11 0.09 0.13 0.29 0.24 0.30 0.46 0.35 0.55 0.41 0.68 0.40 0.44 0.57 0.55 0.57 0.69 0.76 0.68 0.74 1.19 1.00 1.49 1.64 1.89
0.17 0.07 0.02 0.28 0.02 0.12 0.02 0.09 0.05 0.11 0.09 0.03 0.12 0.04 0.06 0.03 0.01 0.03 0.02 0.16 0.08 0.02 0.02 0.06 0.06 0.06 0.13 0.10 0.10 0.07 0.04 0.02 0.03 0.05 0.11 0.11 0.07 0.04 0.03 0.02 0.01 0.01 0.01 0.00 0.00 0.01 0.02 0.06 0.11 0.06 0.01 0.12 0.19 0.10 0.08 0.05 0.09 0.10 0.20 0.14 0.06 0.08 0.05 0.02 0.08 0.46 0.14 0.08 0.30 0.69 0.46 0.43 0.68 0.47 0.35 0.44 0.46 0.69 0.57 0.57 0.58 0.67 0.77 0.73 1.02 1.19 1.07 1.93
0.28 0.08 0.06 0.42 0.16 0.08 0.13 0.07 0.03 0.06 0.06 0.09 0.39 0.05 0.06 0.03 0.02 0.10 0.01 0.02 0.02 0.08 0.06 0.45 0.08 0.13 0.12 0.09 0.08 0.11 0.12 0.08 0.03 0.06 0.13 0.09 0.11 0.16 0.10 0.07 0.03 0.03 0.01 0.01 0.00 0.01 0.12 0.10 0.22 0.03 0.04 0.04 0.08 0.15 0.37 0.22 0.15 0.13 0.15 0.21 0.41 0.19 0.08 0.10 0.05 0.02 0.11 0.12 0.61 0.74 0.47 0.50 0.57 0.37 0.28 0.36 0.62 0.78 0.89 0.63 0.87 0.57 0.63 0.76 0.63 0.72 0.95 1.30
0.08 0.18 0.04 0.17 0.22 0.15 0.05 0.10 0.02 0.06 0.05 0.06 0.10 0.08 0.03 0.02 0.02 0.04 0.02 0.02 0.01 0.07 0.18 0.21 0.08 0.11 0.10 0.15 0.11 0.19 0.16 0.16 0.23 0.17 0.08 0.16 0.09 0.06 0.08 0.10 0.07 0.02 0.02 0.01 0.01 0.01 0.02 0.14 0.07 0.04 0.11 0.07 0.06 0.06 0.11 0.15 0.13 0.13 0.10 0.11 0.05 0.18 0.31 0.15 0.04 0.05 0.06 0.14 0.11 0.37 0.20 0.41 0.36 0.52 0.64 0.61 0.43 0.83 0.94 0.56 0.66 0.86 1.03 0.87 0.78 0.63 0.76 1.03
0.53 0.32 1.17 0.12 0.49 0.15 0.06 0.06 0.04 0.05 0.05 0.10 0.12 0.17 0.12 0.06 0.06 0.03 0.03 0.03 0.06 0.05 0.12 0.07 0.07 0.07 0.07 0.06 0.09 0.18 0.22 0.06 0.10 0.09 0.04 0.04 0.07 0.06 0.09 0.09 0.11 0.10 0.04 0.05 0.02 0.06 0.02 0.31 0.06 0.12 0.20 0.14 0.08 0.18 0.20 0.28 0.28 0.24 0.13 0.09 0.14 0.17 0.17 0.22 0.27 0.16 0.12 0.14 0.16 0.50 0.19 0.36 0.55 0.46 0.98 0.95 0.78 0.93 0.89 1.35 1.45 1.46 0.80 0.92 0.97 1.05 0.95 1.11
0.38 0.59 0.96 0.81 0.35 0.27 0.21 0.10 0.12 0.19 0.22 0.05 0.09 0.13 0.05 0.11 0.11 0.13 0.06 0.03 0.04 0.12 0.20 0.08 0.05 0.07 0.07 0.07 0.08 0.16 0.06 0.05 0.04 0.03 0.02 0.02 0.10 0.10 0.07 0.16 0.06 0.18 0.15 0.10 0.07 0.08 0.00 0.20 0.03 0.11 0.13 0.17 0.11 0.08 0.03 0.03 0.08 0.13 0.18 0.29 0.23 0.19 0.24 0.21 0.22 0.37 0.29 0.19 0.39 0.47 0.51 0.73 0.71 0.43 1.01 0.85 0.52 0.64 1.26 1.45 1.18 0.66 0.51 0.64 0.48 0.52 0.70 0.80
0.39 0.70 0.70 0.99 0.62 0.33 0.23 0.05 0.09 0.16 0.22 0.13 0.29 0.10 0.12 0.10 0.07 0.14 0.29 0.07 0.09 0.27 0.11 0.14 0.10 0.09 0.04 0.05 0.19 0.14 0.09 0.03 0.02 0.01 0.01 0.01 0.00 0.01 0.02 0.03 0.04 0.05 0.10 0.10 0.09 0.10 0.07 0.13 0.20 0.17 0.16 0.30 0.12 0.07 0.07 0.03 0.03 0.08 0.27 0.13 0.26 0.13 0.22 0.08 0.11 0.20 0.28 0.23 0.61 0.71 1.39 0.63 0.75 0.81 1.05 1.09 0.87 0.95 1.04 1.02 1.08 0.62 0.54 0.77 0.59 0.52 0.76 0.70